Tracking 25734 objects as of 28-May-2022
HD Live streaming from Space Station
objects crossing your sky now

DELTA 1 DEB

Track DELTA 1 DEB now!
10-day predictions


NORAD ID: 10728
Int'l Code: 1975-027C
Perigee: 771.7 km
Apogee: 867.2 km
Inclination: 115.2 °
Period: 101.1 minutes
Semi major axis: 7190 km
RCS: 0.0701 m2 (small)
Launch date: April 9, 1975
Source: United States (US)
Launch site: AIR FORCE WESTERN TEST RANGE (AFWTR)

Note: This is SATELLITE DEBRIS
aabbcc
Your satellite tracking list
Your tracking list is empty




NASA's NSSDC Master Catalog

Two Line Element Set (TLE):
1 10728U 75027C   22147.61353616  .00000016  00000-0  82820-4 0  9997
2 10728 115.2076  27.5988 0066392 236.5093 122.9628 14.23872992443980
Source of the keplerian elements: AFSPC